Location: Unspecified
(52.4292°N, 19.3359°E)
Time: 00:25:30
(UTC+02:00)

A-11 Canister half - Pass Details

Date: 19 May 2024
Orbit: 1515 x 1685 km, 47.2° (Epoch: 19 June)

Event Time Altitude Azimuth Distance (km) Brightness Sun altitude
Rises 02:15:08 0° 191° (S) 4,756 - -14.8°
Reaches altitude 10° 02:19:15 10° 176° (S) 3,746 - -14.5°
Exits shadow 02:19:50 11° 173° (S) 3,626 10.4 -14.5°
Maximum altitude 02:25:35 20° 133° (SE) 2,969 10.3 -14.1°
Drops below altitude 10° 02:31:49 10° 90° (E) 3,691 11.4 -13.7°
Sets 02:35:48 0° 75° (ENE) 4,666 12.2 -13.4°
